Location: Gollag?dem
(16.8053°N, 80.8024°E)
Time: 10:10:22
(UTC+00:00)

GPS 2-15 Rocket1 - Pass Details

Date: 13 August 2020
Orbit: 624 x 675 km, 19.8° (Epoch: 18 September)

Event Time Altitude Azimuth Distance (km) Brightness Sun altitude
Rises 13:38:03 0° 237° (WSW) 2,887 7.1 -8.9°
Reaches altitude 10° 13:40:32 10° 229° (SW) 1,978 6.1 -9.4°
Maximum altitude 13:44:49 37° 162° (SSE) 958 3.7 -10.4°
Enters shadow 13:48:11 15° 100° (E) 1,665 4.6 -11.2°
